Volver al catálogo

COSMOS 663 DEB

ActivoPO
NORAD 45505·DEBRIS·🇷🇺 Russia

Lanzado Jun 27, 1974 desde Plesetsk Cosmodrome

Loading…

Próximos Pases (próximas 24 horas)

TLE

ActualizadoSource: Space-Track

Época: Sep 13, 2026, 20:33 UTC

1 45505U 74048C   26256.85679683  .00000334  00000-0  31176-3 0  9996
2 45505  82.9457 100.6049 0023843 332.6427  27.3474 13.79040620624116

Sigue COSMOS 663 DEB en tiempo real con AllMySat

Download on the App Store